Wind_Speed
7 7 7 7 6 6 7 7 5 4 4 4 6 7 7 6 6 5 5 4 4 4 4 4 4 3 3 4 3 3 4 4 5 5 4 5 4 5 5 5 6 6 7
7 7 7 7 7 6 6 6 5 4 4 4 6 6 7 6 6 5 4 4 4 5 5 5 5 4 4 4 4 4 4 4 4 5 5 5 5 5 6 7 7 7 7
6 6 7 7 7 6 6 6 5 5 4 5 6 6 6 6 6 5 5 5 5 5 5 5 5 5 4 4 5 5 5 5 5 6 6 6 6 6 7 7 7 8 9
6 7 6 6 7 7 7 6 6 6 6 6 6 6 6 7 7 7 6 6 6 6 6 6 6 6 5 5 6 6 6 6 6 6 6 7 7 8 8 9 9 9 10
6 6 6 7 6 7 7 7 7 8 8 8 8 7 6 7 8 8 7 7 6 6 6 6 6 6 7 7 7 8 8 8 7 7 7 8 9 9 9 10 10 10 10
6 7 8 8 7 7 8 8 8 8 9 9 9 8 8 8 8 8 8 7 7 7 7 7 8 8 8 8 8 9 9 9 9 9 8 9 9 10 10 11 11 11 12
7 7 8 9 9 9 8 9 9 9 10 10 10 9 9 8 9 9 9 9 8 8 8 9 9 8 9 9 9 10 10 10 10 10 10 11 11 11 11 11 12 12 13
7 8 8 8 9 9 9 9 10 10 10 10 10 10 10 9 10 10 10 10 10 10 9 10 10 10 10 10 11 11 12 12 12 12 13 13 13 13 13 13 13 14 14
8 8 8 9 9 9 9 10 11 11 10 11 11 11 11 11 11 12 12 12 12 12 12 12 12 12 12 12 12 13 13 14 14 14 14 14 14 14 15 15 15 15 15
8 8 9 9 10 10 10 11 11 10 10 11 12 12 12 13 13 13 13 14 14 14 14 14 13 14 15 15 15 15 14 15 15 15 15 15 16 16 16 16 16 16 16
9 9 10 10 10 11 11 12 12 11 10 11 12 13 13 13 13 14 14 14 14 14 14 15 15 15 15 16 16 16 16 16 16 16 17 17 18 17 18 18 18 18 18
10 11 11 12 12 12 12 13 13 12 12 12 12 13 13 14 14 15 15 15 15 14 15 15 16 16 17 17 18 18 18 18 18 18 18 18 18 19 19 19 20 20 20
12 12 13 13 13 12 13 14 14 14 14 14 14 14 15 15 16 16 16 16 16 16 16 17 17 18 18 19 20 20 20 21 21 20 20 20 20 20 20 20 21 20 20
13 13 14 14 14 14 14 14 15 15 15 15 15 16 16 17 17 18 18 18 18 18 18 19 19 19 19 20 21 22 22 22 22 22 22 21 22 22 21 21 21 21 22
14 15 16 16 16 16 16 16 16 16 17 18 18 18 18 18 19 20 20 20 20 20 20 20 20 21 21 21 22 23 23 23 23 24 24 23 24 24 23 23 22 22 23
15 15 16 18 18 18 19 19 19 20 20 20 20 20 21 21 21 21 22 23 23 22 22 22 22 23 24 25 24 24 25 26 26 25 25 26 26 25 25 24 24 24 24
17 18 18 19 19 19 20 20 21 21 21 22 23 24 24 24 24 24 25 25 25 25 24 23 25 25 26 26 26 27 26 26 26 26 26 26 26 26 26 26 26 25 25
20 21 21 21 21 21 21 21 22 22 23 24 25 26 26 26 26 26 27 27 27 28 27 26 26 27 27 27 28 28 28 27 27 27 27 27 27 27 28 28 28 28 27
22 22 22 23 23 24 24 24 24 24 25 25 26 27 27 28 27 27 28 27 27 28 28 27 27 28 28 29 29 29 30 30 30 29 29 29 30 31 30 31 31 31 31
25 25 25 25 25 24 23 23 24 25 25 26 26 27 27 28 29 29 29 29 28 29 29 29 29 30 30 31 31 31 32 32 32 32 31 31 32 33 33 33 33 34 34
28 28 27 27 26 26 26 25 26 26 26 26 27 28 29 28 29 30 30 30 30 31 31 32 31 32 32 32 33 33 34 34 34 33 34 34 34 35 35 35 36 36 36
29 30 29 28 27 28 28 28 28 28 28 28 29 29 30 29 28 29 30 31 31 31 32 32 32 33 34 34 34 35 35 34 34 33 34 34 35 35 36 36 37 38 38
28 29 29 29 29 30 30 30 30 30 29 30 30 31 31 31 31 31 30 31 31 31 32 33 33 34 35 36 36 36 36 35 34 34 35 35 36 36 37 38 39 39 39
28 29 30 30 30 30 31 32 32 32 32 32 32 33 33 33 33 33 32 33 33 33 33 34 34 35 35 35 35 36 36 35 35 35 36 36 37 38 38 38 39 39 40
30 31 31 32 32 31 31 32 32 33 33 34 34 34 34 35 35 36 35 35 35 35 35 35 35 36 36 36 36 35 35 36 36 37 38 38 38 38 38 38 38 39 39
32 32 32 33 33 33 33 33 34 34 35 35 35 36 36 36 36 37 37 37 37 37 37 37 37 37 37 37 37 37 36 37 37 38 39 40 40 40 39 39 39 40 40
Wind_Direction
186 191 191 196 195 198 198 195 195 203 209 220 211 198 200 203 210 220 225 230 242 261 271 277 277 283 289 287 284 284 291 292 290 297 298 300 295 283 279 285 290 292 295
188 190 194 192 194 197 208 212 213 216 226 228 224 212 203 206 216 233 234 240 255 270 276 277 277 278 278 277 278 282 290 294 294 294 291 287 287 287 284 283 281 284 286
187 190 192 198 203 206 213 216 216 218 227 225 226 221 215 224 233 242 244 252 264 271 274 272 275 270 271 279 279 280 285 289 288 287 287 287 288 286 286 285 285 284 285
196 197 203 208 212 216 218 220 219 222 227 226 228 230 233 235 239 244 250 260 271 279 276 270 274 272 272 279 281 281 282 283 282 283 285 288 291 289 288 287 284 285 285
206 208 210 215 218 222 221 225 230 232 235 233 233 235 242 247 248 248 251 261 269 279 279 276 273 271 271 277 280 282 281 281 280 284 288 290 288 290 289 288 283 282 284
221 225 220 219 223 225 227 231 234 238 240 241 238 241 246 253 254 254 260 269 272 276 279 280 276 276 277 279 280 280 282 286 281 282 284 288 288 288 287 286 284 284 285
226 231 230 228 229 230 233 233 234 238 240 241 244 243 247 253 258 259 264 270 275 278 280 278 282 284 280 281 280 277 279 282 284 283 282 285 285 285 285 285 283 283 286
233 235 240 237 235 236 240 240 239 241 242 243 246 250 251 251 254 259 265 269 272 278 278 277 280 280 280 279 279 278 280 281 281 280 281 283 285 285 285 284 284 284 285
240 236 238 235 234 239 242 244 246 247 249 248 248 252 254 255 258 262 268 269 272 277 278 279 279 278 279 282 279 279 278 280 283 284 283 283 284 285 284 282 285 285 284
240 239 241 239 240 242 243 245 247 248 250 250 252 252 254 255 260 267 272 273 273 275 279 280 280 280 278 278 280 279 279 281 282 283 283 283 282 282 280 280 281 283 283
242 244 243 243 245 245 245 247 249 250 253 255 252 250 254 259 265 268 272 274 276 276 279 280 282 283 282 281 281 281 280 281 282 281 282 282 281 281 278 278 278 280 281
247 247 247 251 252 251 250 250 253 255 257 257 254 253 255 259 265 269 273 275 277 278 279 278 280 282 283 283 281 281 281 280 282 281 281 282 281 280 279 279 279 279 279
252 252 254 255 255 255 254 252 253 255 257 258 257 258 259 262 266 270 275 274 274 275 277 278 279 280 280 281 281 282 283 283 282 282 281 280 281 281 281 281 281 282 281
256 254 256 256 257 259 258 257 258 257 257 259 260 260 262 264 268 271 274 273 272 274 275 278 278 279 280 281 280 280 283 284 283 283 284 282 280 281 281 281 281 281 281
260 261 258 258 258 260 262 260 261 261 260 260 260 261 265 267 268 270 272 274 273 274 276 279 279 277 279 283 283 281 282 282 281 280 281 281 280 280 279 279 280 281 281
265 267 264 260 262 263 265 265 264 263 263 262 263 264 266 268 269 271 272 273 274 276 277 278 278 278 279 281 283 283 283 281 281 279 278 279 280 280 279 278 279 280 281
267 267 266 267 265 263 265 265 264 263 262 263 265 267 267 267 270 272 273 274 274 275 276 277 279 280 281 281 281 282 281 281 281 279 278 278 278 278 278 278 279 280 280
269 269 268 268 268 267 267 268 268 265 266 265 266 268 268 267 269 271 273 273 274 275 276 277 278 279 280 281 282 282 281 280 280 279 278 278 277 276 277 277 278 278 278
269 270 270 269 267 267 268 269 269 269 268 267 269 269 269 269 270 273 275 275 275 275 277 278 279 280 280 280 281 281 280 280 280 279 278 278 277 276 276 276 277 277 277
271 269 269 270 270 270 274 273 270 273 273 272 273 273 273 272 273 274 276 277 277 276 277 279 279 279 279 279 279 279 279 280 279 278 278 278 278 277 277 277 276 276 276
272 270 270 270 271 270 272 275 274 274 275 275 275 274 274 275 274 273 275 276 277 278 277 279 279 278 278 278 278 277 278 278 277 277 278 278 277 277 278 278 277 276 276
274 272 273 272 271 270 272 274 273 274 273 273 274 275 275 275 276 276 274 275 276 278 280 279 279 278 279 279 279 278 277 277 277 277 277 277 277 277 278 278 278 276 276
277 274 273 272 271 270 271 272 273 274 274 275 275 276 276 277 277 275 275 276 277 278 280 280 281 281 282 282 282 280 278 277 278 278 277 277 278 278 278 278 278 278 276
276 275 273 272 273 274 274 274 275 273 274 275 276 276 276 277 278 276 276 276 278 279 281 281 282 282 283 284 283 280 279 278 278 278 279 278 278 278 277 278 278 278 277
275 274 274 273 273 274 274 274 276 275 275 275 275 276 276 277 278 278 277 277 279 280 281 282 283 283 283 282 282 281 279 278 278 278 278 279 278 278 277 277 277 277 278
274 273 272 273 274 274 275 275 277 277 276 276 276 276 276 277 277 278 277 277 278 279 280 281 282 283 283 283 281 280 280 279 279 279 278 279 279 278 277 277 277 278 278
Height
5892 5893 5895 5896 5897 5898 5899 5900 5901 5902 5902 5902 5902 5903 5904 5905 5906 5907 5907 5907 5907 5908 5908 5908 5907 5907 5907 5907 5907 5906 5906 5906 5906 5906 5906 5906 5906 5905 5905 5905 5905 5905 5905
5892 5893 5894 5896 5897 5898 5899 5900 5901 5902 5902 5902 5903 5903 5904 5905 5905 5906 5907 5907 5907 5907 5907 5907 5907 5907 5907 5906 5906 5906 5906 5906 5905 5905 5905 5905 5905 5904 5904 5904 5904 5904 5903
5892 5893 5894 5896 5897 5898 5899 5900 5901 5901 5902 5902 5903 5903 5904 5905 5905 5906 5906 5906 5907 5906 5906 5906 5906 5906 5906 5906 5905 5905 5905 5905 5904 5904 5904 5904 5903 5903 5903 5903 5902 5902 5901
5892 5893 5894 5896 5897 5898 5898 5899 5900 5901 5901 5902 5902 5903 5904 5904 5905 5905 5905 5905 5906 5906 5905 5905 5905 5905 5905 5905 5905 5904 5904 5903 5903 5902 5902 5902 5902 5902 5901 5901 5900 5900 5900
5892 5893 5894 5895 5896 5897 5898 5899 5900 5900 5901 5901 5902 5902 5903 5903 5904 5904 5904 5904 5905 5904 5904 5904 5904 5904 5903 5903 5903 5903 5903 5902 5902 5901 5901 5900 5900 5900 5899 5899 5899 5898 5898
5891 5892 5893 5894 5895 5896 5897 5897 5898 5899 5899 5900 5901 5901 5902 5902 5902 5903 5903 5903 5903 5903 5903 5903 5903 5902 5902 5901 5901 5901 5901 5901 5900 5900 5899 5899 5898 5897 5897 5897 5896 5896 5895
5890 5891 5892 5893 5894 5895 5895 5896 5897 5897 5898 5898 5899 5900 5900 5900 5901 5901 5901 5901 5902 5902 5901 5901 5901 5900 5900 5900 5899 5899 5899 5899 5898 5898 5897 5896 5896 5895 5894 5894 5894 5893 5893
5889 5890 5891 5892 5893 5893 5894 5894 5895 5895 5896 5896 5897 5897 5898 5899 5899 5899 5899 5899 5899 5899 5899 5899 5899 5898 5898 5897 5897 5897 5896 5896 5895 5895 5894 5894 5893 5892 5892 5891 5890 5890 5889
5888 5889 5890 5890 5891 5892 5892 5893 5893 5893 5893 5894 5894 5895 5896 5896 5896 5897 5896 5896 5896 5896 5896 5896 5896 5895 5895 5894 5894 5894 5893 5893 5892 5891 5891 5890 5890 5889 5889 5888 5887 5887 5886
5887 5887 5888 5889 5889 5890 5890 5891 5891 5891 5891 5892 5892 5893 5893 5893 5894 5894 5894 5893 5893 5893 5893 5893 5893 5892 5892 5891 5891 5890 5890 5889 5888 5888 5887 5887 5886 5885 5885 5884 5884 5883 5882
5885 5886 5886 5887 5887 5888 5888 5888 5889 5889 5889 5889 5890 5890 5890 5891 5891 5891 5891 5891 5890 5890 5890 5890 5889 5889 5888 5887 5887 5886 5886 5885 5885 5884 5883 5882 5882 5881 5880 5880 5879 5878 5878
5883 5884 5884 5884 5885 5885 5885 5886 5886 5887 5887 5887 5887 5887 5887 5888 5888 5888 5888 5887 5887 5887 5886 5886 5885 5884 5884 5883 5883 5882 5882 5881 5880 5879 5879 5878 5877 5876 5876 5875 5874 5874 5873
5881 5881 5881 5882 5882 5882 5883 5883 5883 5883 5884 5884 5884 5884 5884 5884 5884 5884 5884 5883 5883 5883 5883 5882 5881 5880 5879 5879 5878 5877 5877 5876 5875 5875 5874 5873 5872 5871 5871 5870 5869 5869 5868
5878 5878 5878 5878 5879 5879 5879 5879 5880 5880 5880 5880 5880 5880 5880 5880 5880 5880 5879 5879 5879 5879 5878 5878 5876 5875 5874 5874 5873 5872 5872 5871 5870 5869 5869 5868 5867 5866 5865 5865 5864 5864 5863
5875 5874 5874 5875 5875 5875 5875 5876 5876 5876 5876 5876 5876 5876 5876 5875 5875 5875 5874 5874 5874 5874 5874 5873 5872 5870 5869 5868 5867 5866 5866 5865 5864 5864 5863 5862 5861 5861 5860 5859 5858 5858 5857
5871 5871 5871 5871 5871 5871 5871 5871 5871 5871 5871 5871 5871 5871 5871 5870 5870 5869 5869 5869 5868 5868 5868 5867 5866 5865 5864 5863 5861 5860 5859 5859 5858 5857 5856 5855 5855 5854 5854 5853 5853 5852 5851
5867 5866 5866 5866 5866 5865 5865 5865 5865 5865 5865 5865 5865 5865 5865 5865 5864 5864 5863 5862 5862 5862 5861 5861 5860 5858 5857 5856 5855 5854 5853 5852 5851 5850 5850 5848 5848 5847 5847 5846 5846 5845 5845
5861 5861 5861 5861 5861 5860 5859 5859 5859 5859 5859 5859 5859 5858 5858 5858 5857 5856 5856 5856 5855 5855 5855 5854 5853 5852 5850 5849 5848 5847 5846 5845 5844 5843 5842 5842 5841 5840 5840 5839 5839 5838 5838
5855 5855 5855 5854 5854 5854 5853 5852 5852 5852 5852 5852 5852 5851 5850 5850 5849 5849 5848 5848 5847 5847 5847 5846 5845 5844 5843 5842 5840 5839 5838 5837 5836 5835 5835 5834 5833 5832 5832 5831 5831 5830 5830
5848 5848 5848 5847 5847 5847 5846 5845 5846 5845 5845 5845 5844 5844 5843 5843 5842 5842 5841 5841 5840 5839 5838 5837 5837 5836 5835 5834 5832 5831 5830 5829 5828 5827 5826 5825 5824 5824 5823 5823 5822 5821 5821
5840 5840 5840 5840 5839 5839 5839 5838 5838 5838 5838 5838 5837 5836 5836 5835 5834 5834 5833 5833 5832 5831 5830 5829 5828 5827 5826 5825 5824 5822 5821 5820 5819 5818 5817 5816 5815 5814 5813 5813 5812 5811 5810
5832 5832 5831 5832 5831 5831 5831 5830 5830 5830 5830 5830 5829 5828 5828 5827 5826 5825 5825 5824 5823 5823 5821 5820 5818 5817 5816 5815 5814 5812 5811 5810 5810 5809 5807 5806 5805 5804 5803 5802 5801 5800 5799
5823 5823 5823 5823 5823 5823 5823 5823 5822 5822 5821 5821 5821 5820 5819 5819 5818 5817 5816 5815 5814 5813 5812 5811 5809 5808 5807 5805 5804 5802 5801 5800 5799 5798 5797 5797 5795 5794 5793 5791 5790 5789 5788
5815 5815 5815 5815 5815 5814 5814 5814 5813 5813 5813 5812 5812 5811 5811 5810 5809 5808 5807 5806 5805 5804 5803 5802 5800 5799 5797 5795 5794 5793 5791 5790 5789 5788 5787 5787 5785 5784 5782 5780 5779 5778 5777
5805 5806 5806 5805 5805 5805 5804 5804 5804 5803 5803 5803 5802 5802 5801 5801 5800 5799 5797 5796 5795 5794 5793 5791 5790 5789 5787 5785 5784 5782 5781 5779 5779 5777 5775 5775 5774 5773 5771 5770 5768 5767 5765
5796 5796 5796 5796 5795 5795 5795 5794 5794 5793 5793 5793 5792 5791 5791 5790 5789 5788 5787 5786 5785 5784 5783 5781 5780 5778 5776 5775 5773 5771 5770 5768 5767 5767 5765 5763 5762 5761 5761 5759 5757 5756 5754